Springhill, PA

12:58 AM EDT on July 21, 2017 (GMT -0400)
Fairchance/Cheat Lake | | Change Station

Elev 1080 ft 39.72 °N, 79.81 °W | Updated 26 seconds ago

Partly Cloudy
Partly Cloudy
71.8 °F
Feels Like 71.8 °F
N
0.0
Wind Variable Wind from West
Gusts 0.0 mph

Today
High -- | Low -- °F
--% Chance of Precip.
Yesterday
High -- | Low -- °F
Precip. -- in
Pressure 30.01 in
Visibility 5.0 miles
Clouds Few 6000 ft
Dew Point 70 °F
Humidity 95%
Rainfall 0.00 in
Snow Depth Not available.
6:08 AM 8:42 PM
Waning Crescent, 7% visible
METAR KMGW 210453Z AUTO 18003KT 5SM BR FEW060 23/21 A3005 RMK AO2 SLP162 T02280211 403170206
Pressure 30.01 in
Visibility 5.0 miles
Clouds Few 6000 ft
Dew Point 70 °F
Humidity 95%
Rainfall 0.00 in
Snow Depth Not available.
6:08 AM 8:42 PM
Waning Crescent, 7% visible
METAR KMGW 210453Z AUTO 18003KT 5SM BR FEW060 23/21 A3005 RMK AO2 SLP162 T02280211 403170206

Get Severe Weather Alerts

Thanks for signing up!

Be on the lookout for a verification email in your inbox.

You'll start receiving the daily forecast at 6 AM.

×

10-Day Weather Forecast

Almanac

Astronomy

Jul. 21, 2017 Rise Set
Actual Time
Civil Twilight
Nautical Twilight
Astronomical Twilight
Moon
Length of Visible Light
Length of Day
Tomorrow will be .
, % of the Moon is Illuminated

Today's Extremes

State Highs State Lows

Community

WunderPhotos

Category 6

Welcome to Category 6. This is the collective home for Weather Underground's featured writeups by Dr. Jeff Masters (right), Bob Henson (left), Chris Burt, and other regular contributors.

Nearby

Air Quality

  Air Quality AQ Index Pollutant
Not available.

Snow Depth

Station Depth Elevation

Earthquake Activity

City Distance Mag. Time & Date
Minimum magnitude displayed is 2.5.

Coastal Water Temperatures

Place Temperature

Stations

Nearby Weather Stations

Station Location Temp. Windchill Dew Point Humidity Wind Precip. Elev Updated Type
                   

Watches & Warnings

There are currently no watches in effect.